カタログに戻る

STARLINK-37337

運用中通信VLEO
NORAD 68953·PAYLOAD·🇺🇸 United States

打ち上げ May 1, 2026 から Cape Canaveral Space Force Station

Loading…

次のパス (今後24時間)

TLE

最新Source: CelesTrak SupGP

元期: Sep 14, 2026, 15:40 UTC

1 68953C 26099C   26257.65326389 -.00010082  00000+0 -29780-3 0  2579
2 68953  53.1572 103.3613 0001154  92.4714 269.5678 15.34402812    15

AllMySatでSTARLINK-37337をリアルタイム追跡

Download on the App Store